This demonstration page uses our WeatherBlox Daily Observations layout. Learn more.

39.51506, -84.39828

Hourly Observations for November 14, 2018

Temp ( °F °C ) Dew Point ( °F °C ) Humidity (%) Winds ( mph kmh ) Pressure ( in mb ) Visibility ( mi km ) Precip ( " mm )
12:15 am 00:15 Clear 26 -3.2 22 -5.7 83 83 NW 6 9 30.53 1034 10 16.0934 0 0
12:35 am 00:35 Clear 26 -3.2 22 -5.8 82 82 NNW 6 9 30.53 1034 10 16.0934 0 0
12:55 am 00:55 Clear 26 -3.3 20 -6.4 79 79 NNW 6 9 30.56 1035 10 16.0934 0 0
1:15 am 01:15 Clear 26 -3.5 20 -6.8 78 78 Calm 30.56 1035 10 16.0934 0 0
1:35 am 01:35 Clear 26 -3.4 19 -7.4 74 74 N 12 19 30.56 1035 10 16.0934 0 0
1:55 am 01:55 Clear 26 -3.6 18 -7.9 72 72 N 5 7 30.56 1035 10 16.0934 0 0
2:15 am 02:15 Clear 25 -3.9 18 -7.9 74 74 N 5 7 30.56 1035 10 16.0934 0 0
2:35 am 02:35 Clear 24 -4.2 17 -8.1 75 75 N 5 7 30.56 1035 10 16.0934 0 0
2:55 am 02:55 Clear 25 -4.1 17 -8.1 74 74 N 5 7 30.56 1035 10 16.0934 0 0
3:15 am 03:15 Clear 24 -4.4 17 -8.3 75 75 N 3 6 30.56 1035 10 16.0934 0 0
3:35 am 03:35 Clear 24 -4.6 17 -8.2 76 76 Calm 30.56 1035 10 16.0934 0 0
3:55 am 03:55 Clear 24 -4.4 17 -8.1 76 76 Calm 30.56 1035 10 16.0934 0 0
4:15 am 04:15 Clear 23 -5.1 17 -8.1 80 80 N 3 6 30.56 1035 10 16.0934 0 0
4:35 am 04:35 Clear 23 -4.9 17 -8.2 78 78 Calm 30.56 1035 10 16.0934 0 0
4:55 am 04:55 Clear 23 -5.1 17 -8.3 79 79 N 3 6 30.56 1035 10 16.0934 0 0
5:15 am 05:15 Clear 22 -5.3 17 -8.5 78 78 N 3 6 30.59 1036 10 16.0934 0 0
5:35 am 05:35 Clear 23 -5.1 17 -8.5 77 77 NNE 3 6 30.59 1036 10 16.0934 0 0
5:55 am 05:55 Clear 23 -5.1 17 -8.2 79 79 NNE 5 7 30.59 1036 10 16.0934 0 0
6:15 am 06:15 Clear 22 -5.4 17 -8.2 81 81 NNE 3 6 30.59 1036 10 16.0934 0 0
6:35 am 06:35 Clear 22 -5.4 17 -8.2 81 81 Calm 30.59 1036 10 16.0934 0 0
6:55 am 06:55 Clear 22 -5.7 17 -8.2 83 83 NE 3 6 30.59 1036 10 16.0934 0 0
7:15 am 07:15 Clear 23 -5.2 17 -8.2 80 80 NNE 3 6 30.59 1036 10 16.0934 0 0
7:35 am 07:35 Sunny 22 -5.7 17 -8.2 83 83 Calm 30.62 1037 10 16.0934 0 0
7:55 am 07:55 Sunny 22 -5.4 17 -8.1 82 82 Calm 30.62 1037 10 16.0934 0 0
8:15 am 08:15 Sunny 23 -5.1 18 -7.9 81 81 Calm 30.62 1037 10 16.0934 0 0
8:35 am 08:35 Sunny 23 -4.9 19 -7.4 83 83 Calm 30.62 1037 10 16.0934 0 0
8:55 am 08:55 Sunny 24 -4.2 19 -7.4 79 79 Calm 30.62 1037 10 16.0934 0 0
9:15 am 09:15 Sunny 25 -3.7 19 -7.2 77 77 NE 5 7 30.62 1037 10 16.0934 0 0
9:35 am 09:35 Sunny 26 -3.3 19 -7.3 74 74 NNE 5 7 30.62 1037 10 16.0934 0 0
9:55 am 09:55 Sunny 27 -2.9 18 -7.7 70 70 NE 5 7 30.65 1038 10 16.0934 0 0
10:15 am 10:15 Sunny 27 -2.8 17 -8.1 67 67 Calm 30.65 1038 10 16.0934 0 0
10:35 am 10:35 Sunny 29 -1.6 19 -7.5 64 64 ENE 8 13 30.62 1037 10 16.0934 0 0
10:55 am 10:55 Sunny 29 -1.8 18 -8 63 63 ENE 6 9 30.62 1037 10 16.0934 0 0
11:15 am 11:15 Sunny 29 -1.8 18 -7.9 63 63 NE 8 13 30.62 1037 10 16.0934 0 0
11:35 am 11:35 Sunny 29 -1.7 17 -8.1 62 62 NE 7 11 30.62 1037 10 16.0934 0 0
11:55 am 11:55 Sunny 30 -1.3 18 -8 61 61 NE 7 11 30.62 1037 10 16.0934 0 0
12:15 pm 12:15 Sunny 30 -1.1 18 -7.8 61 61 ENE 7 11 30.59 1036 10 16.0934 0 0
12:35 pm 12:35 Sunny 30 -0.9 18 -8 59 59 NNE 8 13 30.59 1036 10 16.0934 0 0
12:55 pm 12:55 Sunny 31 -0.6 18 -8 58 58 NE 7 11 30.59 1036 10 16.0934 0 0
1:15 pm 13:15 Sunny 31 -0.4 18 -7.9 57 57 NNE 9 15 30.56 1035 10 16.0934 0 0
1:35 pm 13:35 Sunny 31 -0.5 17 -8.2 56 56 NNE 10 17 30.56 1035 10 16.0934 0 0
1:55 pm 13:55 Sunny 31 -0.3 18 -7.7 58 58 NE 7 11 30.56 1035 10 16.0934 0 0
2:15 pm 14:15 Sunny 31 -0.3 18 -8 56 56 NE 9 15 30.53 1034 10 16.0934 0 0
2:35 pm 14:35 Sunny 32 -0.1 18 -7.6 57 57 NNE 8 13 30.53 1034 10 16.0934 0 0
2:55 pm 14:55 Sunny 32 -0.2 18 -8 56 56 NE 10 17 30.53 1034 10 16.0934 0 0
3:15 pm 15:15 Sunny 32 -0.1 18 -7.6 57 57 NE 10 17 30.5 1033 10 16.0934 0 0
3:35 pm 15:35 Sunny 32 0 18 -7.6 57 57 NE 10 17 30.5 1033 10 16.0934 0 0
3:55 pm 15:55 Sunny 32 0 18 -7.9 56 56 ENE 9 15 30.5 1033 10 16.0934 0 0
4:15 pm 16:15 Sunny 32 -0.2 18 -8 56 56 NE 9 15 30.5 1033 10 16.0934 0 0
4:35 pm 16:35 Sunny 31 -0.3 17 -8.1 56 56 ENE 9 15 30.5 1033 10 16.0934 0 0
4:55 pm 16:55 Sunny 31 -0.4 18 -7.9 57 57 NE 9 15 30.48 1032 10 16.0934 0 0
5:15 pm 17:15 Sunny 31 -0.7 18 -7.8 59 59 NE 9 15 30.48 1032 10 16.0934 0 0
5:35 pm 17:35 Clear 31 -0.6 18 -7.8 59 59 NE 10 17 30.48 1032 10 16.0934 0 0
5:55 pm 17:55 Clear 31 -0.7 18 -7.7 59 59 ENE 10 17 30.45 1031 10 16.0934 0 0
6:15 pm 18:15 Clear 31 -0.8 18 -7.7 60 60 NE 15 24 30.45 1031 10 16.0934 0 0
6:35 pm 18:35 Clear 31 -0.8 18 -7.8 59 59 ENE 9 15 30.48 1032 10 16.0934 0 0
6:55 pm 18:55 Clear 31 -0.8 19 -7.5 61 61 NE 10 17 30.48 1032 10 16.0934 0 0
7:15 pm 19:15 Clear 31 -0.7 19 -7.5 60 60 ENE 10 17 30.45 1031 10 16.0934 0 0
7:35 pm 19:35 Clear 31 -0.7 18 -7.6 60 60 ENE 13 20 30.45 1031 10 16.0934 0 0
7:55 pm 19:55 Clear 31 -0.7 19 -7.4 61 61 ENE 12 19 30.45 1031 10 16.0934 0 0
8:15 pm 20:15 Mostly Cloudy 31 -0.6 19 -7.3 61 61 ENE 9 15 30.45 1031 10 16.0934 0 0
8:35 pm 20:35 Cloudy 31 -0.5 19 -7.2 61 61 NE 7 11 30.45 1031 10 16.0934 0 0
8:55 pm 20:55 Cloudy 31 -0.5 19 -7 62 62 ENE 12 19 30.42 1030 10 16.0934 0 0
9:15 pm 21:15 Cloudy 31 -0.5 19 -7.1 61 61 NE 13 20 30.42 1030 10 16.0934 0 0
9:35 pm 21:35 Cloudy 31 -0.4 19 -7 61 61 NE 12 19 30.39 1029 10 16.0934 0 0
9:55 pm 21:55 Cloudy 31 -0.3 19 -7 61 61 NE 14 22 30.42 1030 10 16.0934 0 0
10:15 pm 22:15 Cloudy with Light Snow 31 -0.5 20 -6.7 63 63 NE 12 19 30.39 1029 10 16.0934 0 0
10:35 pm 22:35 Cloudy with Light Snow 31 -0.7 22 -5.4 71 71 NE 14 22 30.39 1029 10 16.0934 0 0
10:55 pm 22:55 Cloudy with Light Snow 31 -0.6 24 -4.5 75 75 NE 12 19 30.39 1029 7 11.26538 0.01 0.254
11:15 pm 23:15 Cloudy with Light Snow 31 -0.7 25 -4 79 79 NE 10 17 30.36 1028 7 11.26538 0.01 0.254
11:35 pm 23:35 Cloudy with Light Snow 31 -0.8 25 -3.7 81 81 NE 10 17 30.36 1028 7 11.26538 0.02 0.508
11:55 pm 23:55 Cloudy with Light Snow 31 -0.8 26 -3.6 82 82 NE 8 13 30.36 1028 7 11.26538 0.02 0.508

Powered by AerisWeather